Location: Bailleul
(50.3375°N, 2.8513°E)
Time: 09:55:42
(UTC+00:00)

SAR-Lupe-2 - Pass Details

Date: 16 June 2021
Orbit: 482 x 484 km, 98.1° (Epoch: 20 July)

Event Time Altitude Azimuth Distance (km) Brightness Sun altitude
Rises 23:08:10 0° 20° (NNE) 2,564 8.3 -15.7°
Reaches altitude 10° 23:10:20 10° 29° (NNE) 1,677 7.1 -15.8°
Maximum altitude 23:13:44 38° 99° (E) 753 4.3 -15.9°
Enters shadow 23:14:50 30° 140° (SE) 896 4.4 -15.9°
